Location: Albany
(35.0000°S, 118.0000°E)
Time: 08:39:07
(UTC-04:00)

JAS-1B - Visible Passes

Search period start: 01 November 2014 00:00
Search period end: 10 November 2014 23:00
Orbit: 911 x 1744 km, 99.1° (Epoch: 01 November)

Date Brightness Start Highest point End Pass type
(mag) Time Alt. Az. Time Alt. Az. Time Alt. Az.
01 Nov 8.9 12:07:20 39° E 12:09:20 42° ESE 12:18:19 10° S visible
01 Nov 8.4 13:59:36 50° W 13:59:36 50° W 14:08:59 10° SSW visible
02 Nov 10.2 09:37:05 10° ESE 09:39:53 12° SE 09:42:40 10° SE visible
02 Nov 8.5 11:26:39 51° E 11:28:12 55° ESE 11:37:40 10° S visible
02 Nov 8.7 13:18:54 38° W 13:18:54 38° W 13:27:40 10° SSW visible
03 Nov 10.0 09:53:43 11° E 09:58:24 16° SE 10:03:36 10° SSE visible
03 Nov 8.2 11:45:58 65° ENE 11:47:09 70° ESE 11:56:55 10° S visible
03 Nov 9.0 13:38:13 28° W 13:38:13 28° W 13:46:08 10° SW visible
04 Nov 9.8 10:13:02 17° E 10:17:01 22° ESE 10:23:40 10° SSE visible
04 Nov 8.0 12:05:17 78° NNE 12:06:09 87° ESE 12:16:03 10° SSW visible
04 Nov 9.3 13:57:33 21° W 13:57:33 21° W 14:04:13 10° SW visible
05 Nov 9.5 10:32:22 23° E 10:35:43 28° ESE 10:43:25 10° S visible
05 Nov 8.0 12:24:37 72° NW 12:25:14 74° WNW 12:35:05 10° SSW visible
05 Nov 9.6 14:16:52 14° W 14:16:52 14° W 14:21:34 10° WSW visible
06 Nov 9.1 10:51:41 31° E 10:54:29 37° ESE 11:02:57 10° S visible
06 Nov 8.2 12:43:57 58° WNW 12:44:23 58° W 12:54:01 10° SSW visible
07 Nov 8.8 11:11:01 41° E 11:13:20 47° ESE 11:22:21 10° S visible
07 Nov 8.5 13:03:17 44° WNW 13:03:35 44° W 13:12:47 10° SSW visible
08 Nov 10.1 09:39:46 10° ESE 09:43:37 13° SE 09:47:23 10° SSE visible
08 Nov 8.4 11:30:22 53° ENE 11:32:15 60° ESE 11:41:39 10° S visible
08 Nov 8.8 13:22:37 34° W 13:22:51 34° W 13:31:23 10° SSW visible
09 Nov 9.9 09:57:27 12° E 10:02:12 18° ESE 10:07:52 10° SSE visible
09 Nov 8.2 11:49:42 66° NE 11:51:14 77° ESE 12:00:50 10° S visible
09 Nov 9.1 13:41:58 25° W 13:42:10 25° W 13:49:42 10° SW visible
10 Nov 9.6 10:16:48 18° E 10:20:52 24° ESE 10:27:47 10° SSE visible
10 Nov 8.0 12:09:03 73° N 12:10:17 85° WNW 12:19:56 10° SSW visible
10 Nov 9.4 14:01:19 18° W 14:01:33 18° W 14:07:32 10° SW visible
